User: anonymous   Login
Location: Unspecified
(0.0000°N, 0.0000°E)
Time: 10:47:30
(UTC+00:00)
Language:

TACSAT 4 - Orbit

View from above orbital plane
View from above orbital plane
View from above satellite
View from above satellite

Ground track
Ground track

The orbit data is extracted from the following two-line orbital elements,

1 37818U 11052A   17201.23404861 +.00000525 +00000-0 +14662-2 0  9998
2 37818 063.2614 093.3383 4539126 213.7565 336.3775 06.02706873127833
Epoch (UTC): 20 July 2017 05:37:01
Eccentricity: 0.4539126
inclination: 63.2614°
perigee height: 587 km
apogee height: 12166 km
right ascension of ascending node: 93.3383°
argument of perigee: 213.7565°
revolutions per day: 6.02706873
mean anomaly at epoch: 336.3775°
orbit number at epoch: 12783

The dashed part of the orbit path shows where the satellite is in the earth's shadow,  

DLR